| time (UTC) | temp F | wind direction | speed knots | gust knots | rain 1hr in | rain 24hr in | rain mn in | humidity % | barometer mb |
| 20260502210542 | 48 | 355 | 1.7 | 2.6 | 0.00 | 0.00 | 0.00 | 54 | 1015.6 |
| 20260502210045 | 48 | 321 | 0.0 | 3.5 | 0.00 | 0.00 | 0.00 | 54 | 1015.7 |
| 20260502205552 | 48 | 9 | 0.9 | 5.2 | 0.00 | 0.00 | 0.00 | 53 | 1015.6 |
| 20260502205037 | 48 | 331 | 1.7 | 5.2 | 0.00 | 0.00 | 0.00 | 52 | 1015.6 |
| 20260502204541 | 49 | 280 | 0.9 | 3.5 | 0.00 | 0.00 | 0.00 | 52 | 1015.7 |
| 20260502204048 | 49 | 32 | 0.0 | 1.7 | 0.00 | 0.00 | 0.00 | 56 | 1015.7 |
| 20260502203551 | 48 | 33 | 0.0 | 1.7 | 0.00 | 0.00 | 0.00 | 55 | 1015.7 |
| 20260502203037 | 48 | 348 | 0.0 | 2.6 | 0.00 | 0.00 | 0.00 | 55 | 1015.7 |
| 20260502202543 | 48 | 264 | 0.0 | 1.7 | 0.00 | 0.00 | 0.00 | 56 | 1015.7 |
| 20260502202048 | 48 | 263 | 0.0 | 3.5 | 0.00 | 0.00 | 0.00 | 55 | 1015.7 |
| 20260502201535 | 48 | 350 | 0.0 | 3.5 | 0.00 | 0.00 | 0.00 | 56 | 1015.7 |
| 20260502201106 | 48 | 350 | 0.0 | 2.6 | 0.00 | 0.00 | 0.00 | 55 | 1015.8 |
| 20260502200549 | 48 | 308 | 0.9 | 3.5 | 0.00 | 0.00 | 0.00 | 54 | 1015.9 |
| 20260502200037 | 49 | 332 | 1.7 | 3.5 | 0.00 | 0.00 | 0.00 | 52 | 1015.9 |
| 20260502195543 | 49 | 183 | 0.0 | 2.6 | 0.00 | 0.00 | 0.00 | 55 | 1016.1 |
| 20260502195049 | 49 | 347 | 0.0 | 2.6 | 0.00 | 0.00 | 0.00 | 56 | 1016.0 |
| 20260502194535 | 48 | 281 | 0.9 | 1.7 | 0.00 | 0.00 | 0.00 | 57 | 1016.1 |
| 20260502194057 | 48 | 302 | 0.0 | 3.5 | 0.00 | 0.00 | 0.00 | 56 | 1016.1 |
| 20260502193540 | 48 | 330 | 0.9 | 4.3 | 0.00 | 0.00 | 0.00 | 55 | 1016.1 |
| 20260502193111 | 48 | 277 | 1.7 | 4.3 | 0.00 | 0.00 | 0.00 | 55 | 1016.2 |
| 20260502192535 | 48 | 272 | 0.9 | 3.5 | 0.00 | 0.00 | 0.00 | 55 | 1016.2 |
| 20260502192100 | 48 | 325 | 0.0 | 3.5 | 0.00 | 0.00 | 0.00 | 55 | 1016.2 |
| 20260502191544 | 49 | 321 | 0.0 | 4.3 | 0.00 | 0.00 | 0.00 | 54 | 1016.3 |
| 20260502191050 | 49 | 261 | 1.7 | 4.3 | 0.00 | 0.00 | 0.00 | 55 | 1016.3 |
| 20260502190537 | 48 | 317 | 0.9 | 2.6 | 0.00 | 0.00 | 0.00 | 56 | 1016.3 |
| 20260502190042 | 48 | 269 | 0.9 | 4.3 | 0.00 | 0.00 | 0.00 | 57 | 1016.4 |
| 20260502185547 | 48 | 304 | 0.9 | 4.3 | 0.00 | 0.00 | 0.00 | 56 | 1016.4 |
| 20260502185053 | 49 | 360 | 1.7 | 4.3 | 0.00 | 0.00 | 0.00 | 55 | 1016.4 |
| 20260502184540 | 49 | 306 | 0.9 | 4.3 | 0.00 | 0.00 | 0.00 | 55 | 1016.5 |
| 20260502184047 | 49 | 351 | 1.7 | 4.3 | 0.00 | 0.00 | 0.00 | 53 | 1016.5 |
| 20260502183534 | 49 | 360 | 0.9 | 4.3 | 0.00 | 0.00 | 0.00 | 53 | 1016.5 |
| 20260502183055 | 48 | 313 | 1.7 | 4.3 | 0.00 | 0.00 | 0.00 | 55 | 1016.5 |
| 20260502182541 | 48 | 355 | 1.7 | 4.3 | 0.00 | 0.00 | 0.00 | 54 | 1016.6 |
| 20260502182047 | 48 | 317 | 1.7 | 3.5 | 0.00 | 0.00 | 0.00 | 54 | 1016.7 |
| 20260502181534 | 48 | 342 | 0.9 | 3.5 | 0.00 | 0.00 | 0.00 | 54 | 1016.7 |
| 20260502181041 | 48 | 273 | 0.9 | 3.5 | 0.00 | 0.00 | 0.00 | 57 | 1016.7 |
| 20260502180552 | 48 | 306 | 0.9 | 2.6 | 0.00 | 0.00 | 0.00 | 60 | 1016.8 |
| 20260502164046 | 44 | 333 | 0.9 | 4.3 | 0.00 | 0.02 | 0.00 | 69 | 1017.3 |
| 20260502163552 | 44 | 325 | 1.7 | 3.5 | 0.00 | 0.02 | 0.00 | 68 | 1017.3 |
| 20260502163037 | 44 | 246 | 1.7 | 3.5 | 0.00 | 0.02 | 0.00 | 74 | 1017.2 |
| 20260502162543 | 44 | 319 | 0.0 | 1.7 | 0.00 | 0.02 | 0.00 | 76 | 1017.3 |
| 20260502162053 | 44 | 319 | 0.0 | 1.7 | 0.00 | 0.02 | 0.00 | 75 | 1017.3 |
| 20260502161538 | 44 | 319 | 0.0 | 2.6 | 0.00 | 0.02 | 0.00 | 75 | 1017.4 |
| 20260502161045 | 44 | 319 | 0.0 | 2.6 | 0.00 | 0.02 | 0.00 | 75 | 1017.3 |
| 20260502160551 | 44 | 69 | 0.0 | 1.7 | 0.00 | 0.02 | 0.00 | 76 | 1017.4 |
| 20260502152048 | 42 | 9 | 0.0 | 2.6 | 0.00 | 0.00 | 0.00 | 80 | 1017.2 |
| 20260502151534 | 42 | 32 | 0.0 | 1.7 | 0.00 | 0.00 | 0.00 | 81 | 1017.2 |
| 20260502151040 | 42 | 55 | 0.9 | 1.7 | 0.00 | 0.00 | 0.00 | 81 | 1017.1 |
| 20260502150545 | 42 | 50 | 0.0 | 1.7 | 0.00 | 0.00 | 0.00 | 82 | 1017.1 |
| 20260502130548 | 40 | 5 | 1.7 | 3.5 | 0.00 | 0.00 | 0.00 | 84 | 1016.5 |
| 20260502123548 | 40 | 355 | 0.0 | 0.0 | 0.00 | 0.00 | 0.00 | 88 | 1016.3 |
| 20260502123035 | 40 | 334 | 0.0 | 0.0 | 0.00 | 0.00 | 0.00 | 88 | 1016.4 |
| 20260502122537 | 40 | 327 | 0.0 | 0.0 | 0.00 | 0.00 | 0.00 | 88 | 1016.4 |
| 20260502122109 | 40 | 326 | 0.0 | 0.0 | 0.00 | 0.00 | 0.00 | 89 | 1016.4 |
| 20260502121534 | 40 | 326 | 0.0 | 0.0 | 0.00 | 0.00 | 0.00 | 89 | 1016.4 |
| 20260502121039 | 40 | 326 | 0.0 | 0.0 | 0.00 | 0.00 | 0.00 | 90 | 1016.4 |
| 20260502120545 | 40 | 327 | 0.0 | 0.0 | 0.00 | 0.00 | 0.00 | 90 | 1016.4 |
| 20260502115538 | 39 | 327 | 0.0 | 0.0 | 0.00 | 0.00 | 0.00 | 90 | 1016.4 |
| 20260502115042 | 39 | 327 | 0.0 | 0.0 | 0.00 | 0.00 | 0.00 | 90 | 1016.3 |
| 20260502114544 | 39 | 327 | 0.0 | 0.0 | 0.00 | 0.00 | 0.00 | 91 | 1016.1 |
| 20260502114050 | 39 | 327 | 0.0 | 0.0 | 0.00 | 0.00 | 0.00 | 91 | 1016.2 |
| 20260502113535 | 39 | 326 | 0.0 | 0.0 | 0.00 | 0.00 | 0.00 | 91 | 1016.2 |
| 20260502113042 | 39 | 326 | 0.0 | 0.0 | 0.00 | 0.00 | 0.00 | 91 | 1016.1 |
| 20260502112548 | 38 | 341 | 0.0 | 0.0 | 0.00 | 0.00 | 0.00 | 91 | 1016.1 |
| 20260502112034 | 38 | 341 | 0.0 | 0.0 | 0.00 | 0.00 | 0.00 | 91 | 1016.1 |
| 20260502111541 | 38 | 341 | 0.0 | 0.0 | 0.00 | 0.00 | 0.00 | 91 | 1016.1 |
| 20260502111047 | 38 | 341 | 0.0 | 0.0 | 0.00 | 0.00 | 0.00 | 91 | 1016.0 |
| 20260502110552 | 38 | 341 | 0.0 | 0.0 | 0.00 | 0.00 | 0.00 | 91 | 1015.9 |
| 20260502105548 | 38 | 341 | 0.0 | 0.0 | 0.00 | 0.00 | 0.00 | 91 | 1015.8 |
| 20260502105034 | 38 | 341 | 0.0 | 0.0 | 0.00 | 0.00 | 0.00 | 91 | 1015.7 |
| 20260502104539 | 38 | 341 | 0.0 | 0.0 | 0.00 | 0.00 | 0.00 | 91 | 1015.7 |
| 20260502104046 | 38 | 341 | 0.0 | 0.0 | 0.00 | 0.00 | 0.00 | 91 | 1015.8 |
| 20260502103532 | 38 | 341 | 0.0 | 0.0 | 0.00 | 0.00 | 0.00 | 91 | 1015.7 |
| 20260502103059 | 38 | 341 | 0.0 | 0.0 | 0.00 | 0.00 | 0.00 | 91 | 1015.7 |
| 20260502102539 | 38 | 341 | 0.0 | 0.0 | 0.00 | 0.00 | 0.00 | 91 | 1015.6 |
| 20260502102046 | 38 | 341 | 0.0 | 0.0 | 0.00 | 0.00 | 0.00 | 91 | 1015.7 |
| 20260502101533 | 38 | 340 | 0.0 | 0.0 | 0.00 | 0.00 | 0.00 | 91 | 1015.6 |
| 20260502101040 | 38 | 340 | 0.0 | 0.0 | 0.00 | 0.00 | 0.00 | 91 | 1015.6 |
| 20260502100545 | 38 | 340 | 0.0 | 0.0 | 0.00 | 0.00 | 0.00 | 91 | 1015.7 |
| 20260502091042 | 38 | 315 | 0.0 | 0.0 | 0.00 | 0.00 | 0.00 | 90 | 1015.4 |
| 20260502090548 | 38 | 322 | 0.0 | 0.0 | 0.00 | 0.00 | 0.00 | 89 | 1015.4 |
| 20260502071532 | 39 | 307 | 0.0 | 0.0 | 0.00 | 0.00 | 0.00 | 89 | 1014.8 |
| 20260502071042 | 39 | 307 | 0.0 | 0.0 | 0.00 | 0.00 | 0.00 | 89 | 1014.8 |
| 20260502070547 | 39 | 307 | 0.0 | 0.0 | 0.00 | 0.00 | 0.00 | 89 | 1014.9 |
| 20260502070032 | 39 | 307 | 0.0 | 0.0 | 0.00 | 0.00 | 0.00 | 90 | 1014.8 |
| 20260502065538 | 39 | 307 | 0.0 | 0.9 | 0.00 | 0.00 | 0.00 | 90 | 1014.9 |
| 20260502065113 | 39 | 307 | 0.0 | 0.9 | 0.00 | 0.00 | 0.00 | 90 | 1014.9 |
| 20260502064537 | 40 | 307 | 0.0 | 0.9 | 0.00 | 0.00 | 0.00 | 90 | 1014.9 |
| 20260502064044 | 40 | 307 | 0.0 | 0.9 | 0.00 | 0.00 | 0.00 | 90 | 1014.9 |
| 20260502063551 | 40 | 307 | 0.0 | 0.9 | 0.00 | 0.00 | 0.00 | 91 | 1015.1 |
| 20260502063037 | 39 | 309 | 0.0 | 0.0 | 0.00 | 0.00 | 0.00 | 91 | 1015.2 |
| 20260502062546 | 40 | 309 | 0.0 | 0.9 | 0.00 | 0.00 | 0.00 | 90 | 1015.0 |
| 20260502062052 | 39 | 309 | 0.0 | 0.9 | 0.00 | 0.00 | 0.00 | 91 | 1015.1 |
| 20260502061538 | 39 | 309 | 0.0 | 0.0 | 0.00 | 0.00 | 0.00 | 90 | 1015.0 |
| 20260502061046 | 39 | 309 | 0.0 | 0.9 | 0.00 | 0.00 | 0.00 | 90 | 1015.0 |
| 20260502060534 | 39 | 309 | 0.0 | 0.9 | 0.00 | 0.00 | 0.00 | 90 | 1015.1 |
| 20260502060037 | 39 | 309 | 0.0 | 0.0 | 0.00 | 0.00 | 0.00 | 89 | 1015.2 |
| 20260502055608 | 39 | 309 | 0.0 | 0.0 | 0.00 | 0.00 | 0.00 | 89 | 1015.3 |
| 20260502055034 | 39 | 309 | 0.0 | 0.0 | 0.00 | 0.00 | 0.00 | 89 | 1015.2 |
| 20260502054541 | 39 | 309 | 0.0 | 0.0 | 0.00 | 0.00 | 0.00 | 88 | 1015.3 |
| 20260502054049 | 39 | 309 | 0.0 | 0.0 | 0.00 | 0.00 | 0.00 | 88 | 1015.2 |
| 20260502053534 | 40 | 309 | 0.0 | 0.0 | 0.00 | 0.00 | 0.00 | 88 | 1015.3 |
| 20260502053041 | 40 | 309 | 0.0 | 0.0 | 0.00 | 0.00 | 0.00 | 88 | 1015.3 |
| 20260502052547 | 40 | 309 | 0.0 | 0.0 | 0.00 | 0.00 | 0.00 | 87 | 1015.3 |
| 20260502052032 | 40 | 309 | 0.0 | 0.9 | 0.00 | 0.00 | 0.00 | 87 | 1015.3 |
| 20260502051539 | 41 | 309 | 0.0 | 0.9 | 0.00 | 0.00 | 0.00 | 87 | 1015.2 |
| 20260502051044 | 41 | 309 | 0.0 | 0.9 | 0.00 | 0.00 | 0.00 | 87 | 1015.3 |
| 20260502050551 | 41 | 309 | 0.0 | 4.3 | 0.00 | 0.00 | 0.00 | 87 | 1015.4 |
| 20260502050036 | 41 | 309 | 0.9 | 4.3 | 0.00 | 0.00 | 0.00 | 87 | 1015.5 |
| 20260502045532 | 42 | 321 | 0.0 | 0.0 | 0.00 | 0.00 | 0.00 | 87 | 1015.4 |
| 20260502045039 | 42 | 321 | 0.0 | 0.0 | 0.00 | 0.00 | 0.00 | 87 | 1015.4 |
| 20260502044543 | 42 | 321 | 0.0 | 0.0 | 0.00 | 0.00 | 0.00 | 87 | 1015.5 |
| 20260502044050 | 42 | 321 | 0.0 | 0.9 | 0.00 | 0.00 | 0.00 | 87 | 1015.5 |
| 20260502043536 | 42 | 321 | 0.0 | 0.9 | 0.00 | 0.00 | 0.00 | 87 | 1015.4 |
| 20260502043109 | 42 | 321 | 0.0 | 0.9 | 0.00 | 0.00 | 0.00 | 87 | 1015.5 |
| 20260502042534 | 42 | 321 | 0.0 | 0.9 | 0.00 | 0.00 | 0.00 | 87 | 1015.5 |
| 20260502042033 | 42 | 321 | 0.0 | 0.9 | 0.00 | 0.00 | 0.00 | 87 | 1015.5 |
| 20260502041542 | 42 | 275 | 0.0 | 0.9 | 0.00 | 0.00 | 0.00 | 87 | 1015.6 |
| 20260502041028 | 42 | 275 | 0.0 | 0.9 | 0.00 | 0.00 | 0.00 | 88 | 1015.6 |
| 20260502040537 | 42 | 249 | 0.0 | 1.7 | 0.00 | 0.00 | 0.00 | 88 | 1015.5 |
| 20260502040045 | 42 | 236 | 0.0 | 1.7 | 0.00 | 0.00 | 0.41 | 88 | 1015.5 |
| 20260502035610 | 42 | 238 | 0.0 | 1.7 | 0.00 | 0.00 | 0.41 | 88 | 1015.5 |
| 20260502035035 | 42 | 246 | 0.0 | 0.9 | 0.00 | 0.00 | 0.41 | 89 | 1015.4 |
| 20260502034602 | 42 | 246 | 0.0 | 0.9 | 0.00 | 0.00 | 0.41 | 89 | 1015.3 |
| 20260502034048 | 42 | 246 | 0.0 | 0.9 | 0.00 | 0.00 | 0.41 | 89 | 1015.3 |
| 20260502033535 | 41 | 247 | 0.9 | 0.9 | 0.00 | 0.00 | 0.41 | 90 | 1015.3 |
| 20260502033106 | 41 | 250 | 0.0 | 0.0 | 0.00 | 0.00 | 0.41 | 90 | 1015.2 |
| 20260502032533 | 41 | 355 | 0.0 | 0.0 | 0.00 | 0.00 | 0.41 | 90 | 1015.2 |
| 20260502032058 | 41 | 355 | 0.0 | 0.0 | 0.00 | 0.00 | 0.41 | 90 | 1015.2 |
| 20260502031543 | 41 | 355 | 0.0 | 0.0 | 0.00 | 0.00 | 0.41 | 90 | 1015.1 |
| 20260502031050 | 41 | 355 | 0.0 | 0.0 | 0.00 | 0.00 | 0.41 | 90 | 1015.0 |
| 20260502030536 | 41 | 355 | 0.0 | 0.0 | 0.00 | 0.00 | 0.41 | 89 | 1015.0 |
| 20260502030042 | 41 | 355 | 0.0 | 0.0 | 0.00 | 0.00 | 0.41 | 89 | 1015.0 |
| 20260502025548 | 41 | 355 | 0.0 | 0.0 | 0.00 | 0.00 | 0.41 | 89 | 1015.0 |
| 20260502025034 | 41 | 355 | 0.0 | 0.0 | 0.00 | 0.00 | 0.41 | 89 | 1015.0 |
| 20260502024604 | 41 | 355 | 0.0 | 0.0 | 0.00 | 0.00 | 0.41 | 89 | 1014.9 |
| 20260502024051 | 41 | 355 | 0.0 | 0.0 | 0.00 | 0.00 | 0.41 | 89 | 1014.8 |
| 20260502023535 | 41 | 355 | 0.0 | 0.0 | 0.00 | 0.00 | 0.41 | 89 | 1014.9 |
| 20260502023036 | 41 | 355 | 0.0 | 0.0 | 0.00 | 0.00 | 0.41 | 89 | 1014.9 |
| 20260502022542 | 41 | 355 | 0.0 | 0.0 | 0.00 | 0.00 | 0.41 | 88 | 1015.0 |
| 20260502022047 | 41 | 355 | 0.0 | 0.0 | 0.00 | 0.00 | 0.41 | 88 | 1015.0 |
| 20260502021534 | 41 | 355 | 0.0 | 0.0 | 0.00 | 0.00 | 0.41 | 88 | 1015.1 |
| 20260502021040 | 41 | 355 | 0.0 | 0.0 | 0.00 | 0.00 | 0.41 | 88 | 1015.0 |
| 20260502020549 | 41 | 355 | 0.0 | 0.0 | 0.00 | 0.00 | 0.41 | 87 | 1014.9 |
| 20260502020034 | 42 | 355 | 0.0 | 0.0 | 0.00 | 0.00 | 0.41 | 87 | 1014.9 |
| 20260502015540 | 42 | 355 | 0.0 | 0.0 | 0.00 | 0.00 | 0.41 | 86 | 1014.8 |
| 20260502015111 | 42 | 355 | 0.0 | 0.0 | 0.00 | 0.00 | 0.41 | 86 | 1014.8 |
| 20260502014536 | 43 | 355 | 0.0 | 0.0 | 0.00 | 0.00 | 0.41 | 85 | 1014.7 |
| 20260502014042 | 43 | 355 | 0.0 | 0.9 | 0.00 | 0.00 | 0.41 | 85 | 1014.7 |
| 20260502013550 | 43 | 355 | 0.0 | 3.5 | 0.00 | 0.00 | 0.41 | 84 | 1014.7 |
| 20260502013035 | 43 | 355 | 1.7 | 3.5 | 0.00 | 0.00 | 0.41 | 84 | 1014.7 |
| 20260502012540 | 44 | 351 | 0.9 | 3.5 | 0.00 | 0.00 | 0.41 | 84 | 1014.5 |
| 20260502012047 | 44 | 329 | 0.9 | 1.7 | 0.00 | 0.00 | 0.41 | 84 | 1014.4 |
| 20260502011554 | 44 | 331 | 0.9 | 1.7 | 0.00 | 0.00 | 0.41 | 84 | 1014.4 |
| 20260502011035 | 44 | 251 | 0.0 | 0.9 | 0.00 | 0.00 | 0.41 | 83 | 1014.3 |
| 20260502010539 | 44 | 251 | 0.0 | 0.0 | 0.00 | 0.00 | 0.41 | 83 | 1014.3 |
| 20260502010109 | 44 | 251 | 0.0 | 0.9 | 0.00 | 0.00 | 0.41 | 82 | 1014.1 |
| 20260502005553 | 44 | 251 | 0.0 | 0.9 | 0.00 | 0.00 | 0.41 | 82 | 1014.1 |
| 20260502005038 | 45 | 251 | 0.0 | 0.0 | 0.00 | 0.00 | 0.41 | 82 | 1014.0 |
| 20260502004544 | 45 | 251 | 0.0 | 0.0 | 0.00 | 0.00 | 0.41 | 81 | 1014.0 |
| 20260502004050 | 45 | 251 | 0.0 | 1.7 | 0.00 | 0.00 | 0.41 | 80 | 1014.0 |
| 20260502003601 | 45 | 251 | 0.0 | 1.7 | 0.00 | 0.00 | 0.41 | 80 | 1013.9 |
| 20260502003046 | 45 | 280 | 0.0 | 0.9 | 0.00 | 0.00 | 0.41 | 79 | 1013.9 |
| 20260502002532 | 45 | 232 | 0.0 | 0.9 | 0.00 | 0.00 | 0.41 | 79 | 1013.9 |
| 20260502002038 | 45 | 209 | 0.0 | 1.7 | 0.00 | 0.00 | 0.41 | 78 | 1013.9 |
| 20260502001542 | 45 | 223 | 0.0 | 1.7 | 0.00 | 0.00 | 0.41 | 78 | 1013.8 |
| 20260502001109 | 46 | 311 | 0.0 | 0.9 | 0.00 | 0.00 | 0.41 | 78 | 1013.8 |
| 20260502000534 | 46 | 196 | 0.0 | 1.7 | 0.00 | 0.00 | 0.41 | 78 | 1013.7 |
| 20260502000043 | 46 | 196 | 0.0 | 1.7 | 0.00 | 0.00 | 0.41 | 77 | 1013.7 |
| 20260501235548 | 46 | 286 | 0.0 | 2.6 | 0.00 | 0.00 | 0.41 | 78 | 1013.7 |
| 20260501235035 | 46 | 213 | 0.9 | 2.6 | 0.00 | 0.00 | 0.41 | 79 | 1013.6 |
| 20260501234541 | 46 | 194 | 0.0 | 1.7 | 0.00 | 0.00 | 0.41 | 79 | 1013.6 |
| 20260501234047 | 46 | 241 | 0.9 | 1.7 | 0.00 | 0.00 | 0.41 | 80 | 1013.6 |
| 20260501233555 | 46 | 180 | 0.0 | 1.7 | 0.00 | 0.00 | 0.41 | 80 | 1013.7 |
| 20260501233041 | 46 | 282 | 0.0 | 3.5 | 0.00 | 0.00 | 0.41 | 79 | 1013.7 |
| 20260501232548 | 46 | 221 | 0.9 | 3.5 | 0.00 | 0.00 | 0.41 | 79 | 1013.6 |
| 20260501232033 | 46 | 164 | 0.9 | 2.6 | 0.00 | 0.00 | 0.41 | 79 | 1013.6 |
| 20260501231539 | 46 | 162 | 0.9 | 1.7 | 0.00 | 0.00 | 0.41 | 80 | 1013.6 |
| 20260501231046 | 46 | 162 | 0.9 | 1.7 | 0.00 | 0.00 | 0.41 | 81 | 1013.6 |
| 20260501230532 | 46 | 175 | 0.0 | 2.6 | 0.00 | 0.00 | 0.41 | 80 | 1013.6 |
| 20260501230040 | 46 | 174 | 0.9 | 2.6 | 0.00 | 0.00 | 0.41 | 79 | 1013.7 |
| 20260501225545 | 46 | 167 | 0.9 | 1.7 | 0.00 | 0.00 | 0.41 | 80 | 1013.7 |
| 20260501225032 | 46 | 286 | 0.0 | 1.7 | 0.00 | 0.00 | 0.41 | 80 | 1013.7 |
| 20260501224555 | 46 | 173 | 0.0 | 1.7 | 0.00 | 0.00 | 0.41 | 79 | 1013.7 |
| 20260501224042 | 46 | 174 | 0.9 | 2.6 | 0.00 | 0.00 | 0.41 | 80 | 1013.7 |
| 20260501223547 | 46 | 187 | 0.9 | 2.6 | 0.00 | 0.00 | 0.41 | 79 | 1013.6 |
| 20260501223053 | 46 | 186 | 0.0 | 0.9 | 0.00 | 0.00 | 0.41 | 79 | 1013.7 |
| 20260501222538 | 46 | 187 | 0.0 | 1.7 | 0.00 | 0.00 | 0.41 | 79 | 1013.6 |
| 20260501222047 | 46 | 187 | 0.0 | 1.7 | 0.00 | 0.00 | 0.41 | 79 | 1013.7 |
| 20260501221535 | 47 | 173 | 0.0 | 0.9 | 0.00 | 0.00 | 0.41 | 79 | 1013.6 |
| 20260501221041 | 47 | 202 | 0.0 | 0.9 | 0.00 | 0.00 | 0.41 | 77 | 1013.5 |
| 20260501220550 | 47 | 202 | 0.0 | 1.7 | 0.00 | 0.00 | 0.41 | 78 | 1013.5 |
| 20260501215549 | 47 | 184 | 0.9 | 1.7 | 0.00 | 0.00 | 0.41 | 78 | 1013.5 |
| 20260501215035 | 47 | 191 | 0.0 | 1.7 | 0.00 | 0.00 | 0.41 | 79 | 1013.5 |
| 20260501214544 | 47 | 5 | 0.9 | 1.7 | 0.00 | 0.00 | 0.41 | 80 | 1013.5 |
| 20260501214033 | 47 | 5 | 0.0 | 0.0 | 0.00 | 0.00 | 0.41 | 79 | 1013.5 |
| 20260501213558 | 48 | 5 | 0.0 | 0.0 | 0.00 | 0.00 | 0.41 | 79 | 1013.6 |
| 20260501213043 | 48 | 5 | 0.0 | 0.0 | 0.00 | 0.00 | 0.41 | 78 | 1013.6 |
| 20260501212549 | 47 | 5 | 0.0 | 0.0 | 0.00 | 0.00 | 0.41 | 78 | 1013.5 |
| 20260501212036 | 47 | 5 | 0.0 | 0.0 | 0.00 | 0.00 | 0.41 | 80 | 1013.5 |
| 20260501211545 | 47 | 5 | 0.0 | 0.0 | 0.00 | 0.00 | 0.41 | 82 | 1013.5 |
| 20260501211052 | 46 | 5 | 0.0 | 0.0 | 0.00 | 0.00 | 0.41 | 84 | 1013.4 |